DateTimeUTC,F1_A11,F1_S11,BsB_S11,BsG_S11,BsR_S11,BbsB_S11,BbsG_S11,BbsR_S11,BaB_A11,BaG_A11,BaR_A11,Tu_S11,T_S11,Uu_S11,U_S11,P_S11,T1_A11
2021-06-21T01:00:00Z,00000200,20000000,,,,,,,0000.14,0000.45,0000.01,18.3,25.4,03.2,02.1,0666.7,31.1
2021-06-21T01:01:00Z,00000200,20000000,,,,,,,-000.29,-000.11,0000.05,18.3,25.4,03.2,02.1,0666.7,31.1
2021-06-21T01:02:00Z,00000200,20000000,,,,,,,-000.18,-000.21,-000.07,18.4,25.4,03.0,02.0,0666.7,31.1
2021-06-21T01:03:00Z,00000200,60000000,,,,,,,0000.21,-000.12,-000.14,18.4,25.5,02.9,01.9,0666.7,31.2
2021-06-21T01:04:00Z,00000200,40000000,0000.30,0000.08,0000.23,-000.23,-000.03,-000.02,0000.00,0000.15,-000.01,18.7,25.4,02.9,02.0,0667.6,31.1
2021-06-21T01:05:00Z,00000200,00000000,0000.09,-000.08,0000.17,0000.20,0000.04,0000.23,-000.12,0000.11,-000.05,18.8,25.3,02.9,01.9,0667.7,31.1
2021-06-21T01:06:00Z,00000200,00000000,0000.11,0000.09,0000.08,0000.03,0000.27,0000.08,0000.02,-000.09,0000.21,18.8,25.3,02.9,01.9,0667.7,31.1
2021-06-21T01:07:00Z,00000200,00000000,-000.02,0000.45,0000.07,-000.22,-000.03,-000.07,-000.37,-000.49,0000.04,18.7,25.3,02.9,01.9,0667.7,31.1
2021-06-21T01:08:00Z,00000200,00000000,0000.14,-000.08,-000.33,-000.02,0000.19,-000.11,-000.23,-000.24,-000.26,18.7,25.3,02.7,01.8,0667.7,31.1
2021-06-21T01:09:00Z,00000200,00000000,-000.23,0000.05,0000.11,0000.02,0000.04,-000.09,0000.54,0000.74,0000.29,18.7,25.3,02.9,01.9,0667.6,31.1
2021-06-21T01:10:00Z,00000200,00000000,0000.22,0000.11,0000.15,0000.38,-000.10,0000.26,0000.04,0000.14,-000.25,18.7,25.3,02.9,01.9,0667.6,31.1
2021-06-21T01:11:00Z,00000200,00000000,0000.96,0000.09,-000.21,-000.01,-000.08,0000.04,-000.48,-000.41,0000.07,18.6,25.2,02.9,01.9,0667.6,31.1
2021-06-21T01:12:00Z,00000200,00000000,0000.17,0000.01,-000.05,0000.30,-000.14,0000.11,-000.13,-000.15,-000.19,18.6,25.2,02.8,01.9,0667.6,31.1
2021-06-21T01:13:00Z,00000200,00000000,-000.13,0000.05,0000.06,0000.06,0000.02,0000.16,0000.11,-000.06,-000.03,18.6,25.2,02.7,01.8,0667.6,31.1
2021-06-21T01:14:00Z,00000200,00000000,-000.30,0000.07,0000.09,-000.22,-000.21,-000.03,-000.05,-000.33,0000.02,18.6,25.2,02.7,01.8,0667.6,31.1
2021-06-21T01:15:00Z,00000200,00000000,0000.08,0000.18,0000.03,-000.15,-000.12,0000.37,0000.10,0000.50,0000.08,18.7,25.3,02.7,01.8,0667.6,31.1
2021-06-21T01:16:00Z,00000200,00000000,0000.24,-000.28,-000.03,-000.23,-000.03,0000.11,0000.46,0000.23,-000.02,18.7,25.2,02.8,01.9,0667.6,31.1
2021-06-21T01:17:00Z,00000200,00000000,0000.01,0000.04,0000.01,0000.41,-000.09,0000.14,-000.29,0000.06,-000.04,18.7,25.2,02.8,01.9,0667.6,31.1
2021-06-21T01:18:00Z,00000200,00000000,0000.19,0000.05,-000.25,-000.03,-000.14,-000.31,0000.28,0000.23,0000.12,18.7,25.2,03.0,02.0,0667.6,31.1
2021-06-21T01:19:00Z,00000200,00000000,0000.22,0000.17,-000.08,0000.61,0000.05,0000.21,0000.37,0000.10,0000.43,18.7,25.2,03.0,02.0,0667.6,31.1
2021-06-21T01:20:00Z,00000200,00000000,0000.36,0000.01,-000.26,0000.26,-000.09,-000.10,0000.02,-000.04,0000.13,18.7,25.2,03.0,02.0,0667.6,31.1
2021-06-21T01:21:00Z,00000200,00000000,0000.29,-000.08,-000.33,-000.56,0000.05,-000.02,0000.11,0000.10,0000.07,18.7,25.2,03.1,02.1,0667.6,31.1
2021-06-21T01:22:00Z,00000200,00000000,0000.25,-000.03,0000.14,-000.03,-000.28,0000.25,0000.15,0000.27,-000.00,18.6,25.2,03.1,02.1,0667.6,31.1
2021-06-21T01:23:00Z,00000200,00000000,0000.16,-000.23,0000.21,0000.26,0000.02,0000.08,-000.61,-000.45,-000.16,18.6,25.2,03.0,02.0,0667.6,31.1
2021-06-21T01:24:00Z,00000200,00000000,0000.15,0000.18,-000.04,0000.03,0000.03,-000.00,0000.06,-000.16,-000.20,18.6,25.2,03.0,02.0,0667.6,31.1
2021-06-21T01:25:00Z,00000200,00000000,0000.49,-000.08,0000.03,-000.08,-000.09,0000.19,-000.10,-000.06,-000.30,18.6,25.2,02.8,01.9,0667.6,31.1
2021-06-21T01:26:00Z,00000200,00000000,0000.23,0000.21,-000.11,0000.33,-000.02,0000.20,-000.07,-000.03,0000.25,18.6,25.1,02.8,01.8,0667.6,31.1
2021-06-21T01:27:00Z,00000200,00000000,0000.08,-000.10,0000.03,-000.25,0000.35,-000.08,0000.41,-000.05,-000.02,18.5,25.1,02.8,01.8,0667.6,31.1
2021-06-21T01:28:00Z,00000200,00000000,-000.06,-000.06,-000.09,-000.23,-000.04,-000.03,-001.13,-000.61,-000.43,18.6,25.1,02.7,01.8,0667.6,31.1
2021-06-21T01:29:00Z,00000200,00000000,0000.62,0000.09,0000.08,0000.09,-000.16,0000.23,0000.23,0000.16,0000.14,18.6,25.1,02.5,01.7,0667.6,31.1
2021-06-21T01:30:00Z,00000200,00000000,0000.34,-000.11,0000.11,-000.22,-000.01,0000.38,-000.25,-000.14,-000.09,18.6,25.2,02.5,01.7,0667.6,31.1
2021-06-21T01:31:00Z,00000200,00000000,0000.11,0000.24,0000.01,-000.23,0000.02,0000.10,-000.17,-000.13,0000.06,18.6,25.2,02.5,01.7,0667.6,31.1
2021-06-21T01:32:00Z,00000200,00000000,0000.30,0000.32,0000.16,0000.11,0000.13,0000.11,-000.43,-000.05,-000.39,18.6,25.2,02.5,01.7,0667.6,31.1
2021-06-21T01:33:00Z,00000200,00000000,0000.51,0000.09,0000.12,0000.08,0000.10,0000.08,0000.04,-000.24,-000.07,18.7,25.2,02.4,01.6,0667.6,31.1
2021-06-21T01:34:00Z,00000200,00000000,-000.38,-000.08,-000.02,0000.06,0000.15,0000.05,0000.02,-000.07,0000.21,18.7,25.2,02.2,01.5,0667.6,31.1
2021-06-21T01:35:00Z,00000200,00000000,-000.24,0000.37,0000.25,-000.21,-000.09,0000.26,0000.32,0000.20,0000.04,18.6,25.2,02.3,01.6,0667.6,31.1
2021-06-21T01:36:00Z,00000200,00000000,-000.10,-000.09,-000.13,0000.06,-000.01,-000.02,0000.00,-000.10,0000.03,18.6,25.2,02.3,01.5,0667.6,31.1
2021-06-21T01:37:00Z,00000200,00000000,-000.13,0000.28,0000.36,-000.25,0000.06,0000.27,0000.31,0000.29,0000.09,18.6,25.2,02.4,01.6,0667.6,31.1
2021-06-21T01:38:00Z,00000200,00000000,-000.40,-000.08,0000.03,-000.00,0000.12,-000.07,-000.10,0000.06,0000.08,18.5,25.1,02.4,01.6,0667.6,31.1
2021-06-21T01:39:00Z,00000200,00000000,0000.40,-000.06,-000.11,-000.11,0000.02,0000.03,0000.23,0000.30,0000.19,18.5,25.1,02.3,01.6,0667.6,31.1
2021-06-21T01:40:00Z,00000200,00000000,0000.17,0000.24,0000.19,-000.12,-000.11,0000.21,-000.15,-000.50,-000.26,18.5,25.1,02.3,01.6,0667.6,31.1
2021-06-21T01:41:00Z,00000200,00000000,0000.18,0000.00,0000.03,-000.05,0000.00,-000.04,-000.30,-000.30,-000.15,18.5,25.1,02.2,01.5,0667.6,31.1
2021-06-21T01:42:00Z,00000200,01000000,0000.46,-000.08,0000.01,-000.41,0000.17,0000.27,-000.05,-000.42,-000.29,18.5,25.1,02.1,01.4,0667.6,31.1
2021-06-21T01:43:00Z,00000200,00000000,0000.13,0000.01,-000.25,-000.02,-000.11,-000.20,-000.19,0000.15,0000.17,18.5,25.1,02.1,01.4,0667.5,31.1
2021-06-21T01:44:00Z,00000200,00000000,0000.71,-000.09,-000.05,-000.57,0000.06,0000.26,0000.33,0000.40,0000.16,18.5,25.1,02.1,01.4,0667.6,31.1
2021-06-21T01:45:00Z,00000200,00000000,0000.08,0000.12,-000.29,0000.22,-000.25,-000.05,0000.67,0000.64,0000.26,18.6,25.1,02.3,01.5,0667.6,31.1
2021-06-21T01:46:00Z,00000200,00000000,-000.59,0000.04,0000.26,0000.14,-000.21,0000.26,-000.37,-000.08,-000.07,18.6,25.2,02.3,01.6,0667.6,31.1
2021-06-21T01:47:00Z,00000200,00000000,0000.00,0000.15,-000.05,-000.04,-000.36,0000.07,0000.22,-000.12,0000.03,18.6,25.2,02.4,01.6,0667.6,31.1
2021-06-21T01:48:00Z,00000200,00000000,-000.17,0000.32,0000.04,-000.08,0000.01,0000.11,0000.00,0000.12,-000.03,18.7,25.2,02.3,01.6,0667.6,31.1
2021-06-21T01:49:00Z,00000200,00000000,0000.26,0000.09,0000.17,0000.28,0000.08,-000.21,0000.28,-000.10,0000.70,18.7,25.2,02.4,01.6,0667.5,31.1
2021-06-21T01:50:00Z,00000200,00000000,0000.35,0000.17,0000.08,0000.18,0000.07,0000.01,-000.27,0000.27,-000.51,18.6,25.1,02.3,01.5,0667.5,31.1
2021-06-21T01:51:00Z,00000200,00000000,0000.36,-000.06,-000.28,0000.34,0000.07,-000.29,0000.11,0000.16,0000.01,18.6,25.1,02.3,01.5,0667.5,31.1
2021-06-21T01:52:00Z,00000200,00000000,0000.09,-000.04,-000.04,-000.06,0000.13,0000.33,0000.13,-000.46,0000.15,18.6,25.1,02.3,01.6,0667.5,31.1
2021-06-21T01:53:00Z,00000200,00000000,0000.49,-000.04,-000.02,0000.21,0000.12,0000.18,0000.04,0000.13,-000.08,18.5,25.1,02.4,01.6,0667.5,31.1
2021-06-21T01:54:00Z,00000200,00000000,0000.15,0000.32,-000.09,-000.52,0000.19,0000.06,0000.44,0000.70,0000.44,18.5,25.1,02.4,01.6,0667.5,31.1
2021-06-21T01:55:00Z,00000200,00000000,-000.16,0000.04,0000.23,-000.06,0000.12,-000.12,0000.07,-000.06,-000.15,18.5,25.1,02.6,01.7,0667.5,31.1
2021-06-21T01:56:00Z,00000200,00000000,0000.39,0000.03,-000.18,0000.27,0000.01,0000.31,-000.15,0000.02,-000.05,18.5,25.0,02.6,01.7,0667.5,31.1
2021-06-21T01:57:00Z,00000200,40000000,,,,,,,0000.59,0000.29,0000.41,18.5,25.1,02.8,01.9,0667.5,31.1
2021-06-21T01:58:00Z,00000200,60000000,,,,,,,-000.25,-000.25,0000.05,18.2,25.2,02.7,01.8,0666.5,31.1
2021-06-21T01:59:00Z,00000200,20000000,,,,,,,-000.05,0000.31,-000.26,18.1,25.3,02.6,01.7,0666.5,31.1
